Hourly Weather Roundup
Issued by NWS Central Illinois

Home | Current Version | Previous Version | Text Only | Print | Product List | Glossary On
Versions: 1 2 3 4 5 6 7 8 9 10 11 12 13 14 15 16 17 18 19 20 21 22 23 24 25 26 27 28 29 30 31 32 33 34 35 36 37 38 39 40 41 42 43 44 45 46 47 48 49 50
000
NZUS43 KILX 242210
HWRILX

AREA WEATHER ROUNDUP
NATIONAL WEATHER SERVICE, LINCOLN IL
500 PM CDT FRI MAR 24 2017


CITY           SKY/WX    TMP DP  RH WIND       PRES   REMARKS
BLOOMINGTON    CLOUDY    73  56  54 S22G30    29.94S
CHAMPAIGN      MOSUNNY   74  54  49 S23G39    29.98R
DECATUR        PTSUNNY   73  55  53 S26G33    29.97S
EFFINGHAM      CLOUDY    72  57  60 S13G21    30.03S
FLORA          PTSUNNY   73  57  58 S18       30.03F
GALESBURG      CLOUDY    67  49  52 W16G24    29.92R
JACKSONVILLE   PTSUNNY   74  51  42 S16G23    29.93F
LACON          CLOUDY    75  50  41 SW6       29.91S
LAWRENCEVILLE  PTSUNNY   73  56  54 S22       30.06S
LITCHFIELD     MOSUNNY   73  56  54 S21       29.96R
$$


CITY           SKY/WX    TMP DP  RH WIND       PRES   REMARKS
LINCOLN        PTSUNNY   75  57  52 S7G22     29.93S
MACOMB         CLOUDY    65  52  62 W20       29.96R
MATTOON        CLOUDY    71  56  58 S17G25    30.01S
MT CARMEL AP   PTSUNNY   73  54  50 S20G26    30.05S
OLNEY-NOBLE AP CLOUDY    72  57  60 S13       30.04F
PARIS          PTSUNNY   72  56  58 S29       30.03S
PEORIA         MOSUNNY   74  45  35 W6        29.92R
PONTIAC        MOSUNNY   75  56  50 SW17      29.95R
RANTOUL        CLOUDY    74  57  55 SW18G28   29.98S
SPRINGFIELD    CLOUDY    77  52  41 SW14      29.94S
TAYLORVILLE    MOSUNNY   72  57  60 S20       29.96S
$$

...REGIONAL REPORTS...


CITY           SKY/WX    TMP DP  RH WIND       PRES   REMARKS
CHICAGO O`HARE CLOUDY    78  42  27 W10       29.89R
KANKAKEE       PTSUNNY   76  53  44 SW21G29   29.95R
MOLINE         CLOUDY    70  44  39 W17       29.92R
MOUNT STERLING CLOUDY    63  53  70 W13       29.95R
MOUNT VERNON   PTSUNNY   72  57  59 S15G25    30.02S
PITTSFIELD     CLOUDY    73  50  44 W7        29.94S
QUINCY         LGT RAIN  59  56  89 NW12      29.93F
ROCKFORD       CLOUDY    74  45  35 SW7       29.92R
$$


CITY           SKY/WX    TMP DP  RH WIND       PRES   REMARKS
BURLINGTON     CLOUDY    60  55  83 W6        29.93F
CEDAR RAPIDS   LGT RAIN  53  53 100 SE3       29.94R FOG
DES MOINES     CLOUDY    50  46  86 N10       29.94S FOG
KIRKSVILLE     RAIN      57  56  96 S6        29.95R FOG
OTTUMWA        CLOUDY    58  57  97 S8        29.91F
ST LOUIS       CLOUDY    76  51  41 S16G22    29.96R
$$


CITY           SKY/WX    TMP DP  RH WIND       PRES   REMARKS
TERRE HAUTE    PTSUNNY   72  53  51 SW24G35   30.04R
EVANSVILLE     PTSUNNY   74  52  46 SW21G28   30.08F
INDIANAPOLIS   MOSUNNY   73  53  49 SW29G36   30.04S
LAFAYETTE      PTSUNNY   71  55  56 SW14G23   30.01R
MADISON        CLOUDY    44  39  82 N14       29.99R
MILWAUKEE      CLOUDY    40  35  83 N16G28    30.00R HAZE    WCI  31
$$






USA.gov is the U.S. government's official web portal to all federal, state and local government web resources and services.